Terug naar catalogus

FENGYUN 1C DEB

ActiefSSO
NORAD 30213·DEBRIS·🇨🇳 China

Gelanceerd May 10, 1999 vanaf Taiyuan Satellite Launch Center

Loading…

Volgende Passages (komende 24 uur)

TLE

VersSource: Space-Track

Epoch: Sep 14, 2026, 03:58 UTC

1 30213U 99025VW  26257.16575406  .00001695  00000-0  91395-3 0  9991
2 30213  99.1121 343.2632 0070310 190.0050 198.5685 14.12888037  4034

Volg FENGYUN 1C DEB in realtime met AllMySat

Download on the App Store